IBE05ZC LEMD-LEMG

Flight info

Callsign IBE05ZC
Flight time 0h 48m
Altitude 29000
Route VTB N10 INPAN DCT MOCEQ DCT VULPE
Aircraft A20N/H-SDE3FGHIJ1RWXY/LB1

Departure

Time 2026-05-03 21:06
Airport Adolfo Suárez Madrid–Barajas Airport (LEMD)

Arrival

Time 2026-05-03 21:54
Airport Málaga-Costa del Sol Airport (LEMG)
Time Latitude Longitude Altitude Speed Heading
2026-05-03 20:37 40.49229 -3.58992 1964 ft 0 kts 269°
2026-05-03 20:51 40.49229 -3.58985 1964 ft 2 kts 269°
2026-05-03 20:52 40.49229 -3.58966 1964 ft 2 kts 269°
2026-05-03 20:52 40.49229 -3.58947 1964 ft 2 kts 269°
2026-05-03 20:52 40.49229 -3.58927 1964 ft 2 kts 269°
2026-05-03 20:52 40.49230 -3.58912 1964 ft 1 kts 281°
2026-05-03 20:53 40.49226 -3.58904 1964 ft 1 kts 343°
2026-05-03 20:53 40.49220 -3.58904 1964 ft 0 kts
2026-05-03 20:53 40.49216 -3.58904 1964 ft 0 kts 360°
2026-05-03 20:59 40.49218 -3.58904 1964 ft 1 kts
2026-05-03 21:00 40.49249 -3.58866 1964 ft 12 kts 86°
2026-05-03 21:00 40.49248 -3.58786 1964 ft 13 kts 88°
2026-05-03 21:00 40.49249 -3.58700 1964 ft 6 kts 89°
2026-05-03 21:00 40.49249 -3.58631 1964 ft 8 kts 89°
2026-05-03 21:01 40.49249 -3.58552 1964 ft 9 kts 90°
2026-05-03 21:01 40.49247 -3.58463 1964 ft 10 kts 91°
2026-05-03 21:01 40.49247 -3.58364 1964 ft 11 kts 89°
2026-05-03 21:01 40.49249 -3.58256 1964 ft 12 kts 89°
2026-05-03 21:02 40.49250 -3.58133 1964 ft 14 kts 89°
2026-05-03 21:02 40.49250 -3.58001 1964 ft 14 kts 91°
2026-05-03 21:02 40.49250 -3.57865 1964 ft 15 kts 88°
2026-05-03 21:02 40.49250 -3.57726 1964 ft 15 kts 90°
2026-05-03 21:03 40.49257 -3.57614 1964 ft 7 kts 71°
2026-05-03 21:03 40.49263 -3.57595 1964 ft 0 kts 65°
2026-05-03 21:04 40.49271 -3.57573 1964 ft 7 kts 61°
2026-05-03 21:04 40.49296 -3.57484 1964 ft 8 kts 92°
2026-05-03 21:04 40.49305 -3.57456 1964 ft 1 kts 357°
2026-05-03 21:04 40.49327 -3.57463 1964 ft 3 kts 358°
2026-05-03 21:05 40.49328 -3.57463 1964 ft 0 kts 359°
2026-05-03 21:05 40.49446 -3.57464 1964 ft 50 kts 359°
2026-05-03 21:05 40.50039 -3.57466 1964 ft 116 kts 359°
2026-05-03 21:06 40.51040 -3.57472 1966 ft 169 kts 358°
2026-05-03 21:06 40.52291 -3.57470 2329 ft 183 kts 359°
2026-05-03 21:06 40.53566 -3.57475 2949 ft 187 kts 358°
2026-05-03 21:06 40.54857 -3.57494 3650 ft 187 kts
2026-05-03 21:07 40.56124 -3.57257 4284 ft 187 kts 13°
2026-05-03 21:07 40.57371 -3.56777 4842 ft 188 kts 16°
2026-05-03 21:07 40.58625 -3.56254 5387 ft 189 kts 16°
2026-05-03 21:07 40.59896 -3.55736 5775 ft 198 kts 15°
2026-05-03 21:08 40.61247 -3.55180 6180 ft 208 kts 15°
2026-05-03 21:08 40.62674 -3.54617 6553 ft 221 kts 13°
2026-05-03 21:08 40.64217 -3.54192 6940 ft 234 kts
2026-05-03 21:08 40.65901 -3.54013 7304 ft 251 kts
2026-05-03 21:09 40.67666 -3.53876 7966 ft 256 kts
2026-05-03 21:09 40.69432 -3.53668 8794 ft 255 kts 12°
2026-05-03 21:09 40.70999 -3.52683 9525 ft 257 kts 44°
2026-05-03 21:09 40.72048 -3.50744 10071 ft 268 kts 59°
2026-05-03 21:10 40.72887 -3.48495 10539 ft 282 kts 77°
2026-05-03 21:10 40.72796 -3.45880 10970 ft 294 kts 110°
2026-05-03 21:10 40.71639 -3.43675 11397 ft 307 kts 141°
2026-05-03 21:10 40.69652 -3.42468 11721 ft 323 kts 172°
2026-05-03 21:11 40.67387 -3.42652 12019 ft 337 kts 194°
2026-05-03 21:11 40.65105 -3.43530 12464 ft 347 kts 198°
2026-05-03 21:11 40.62789 -3.44401 13267 ft 345 kts 196°
2026-05-03 21:11 40.60485 -3.45181 14046 ft 345 kts 195°
2026-05-03 21:12 40.58162 -3.45940 14791 ft 344 kts 195°
2026-05-03 21:12 40.55853 -3.46663 15432 ft 347 kts 195°
2026-05-03 21:12 40.53474 -3.47382 16122 ft 350 kts 195°
2026-05-03 21:12 40.51114 -3.48080 16798 ft 352 kts 195°
2026-05-03 21:13 40.48694 -3.48788 17470 ft 354 kts 195°
2026-05-03 21:13 40.46312 -3.49477 18096 ft 357 kts 195°
2026-05-03 21:13 40.43892 -3.50172 18736 ft 359 kts 195°
2026-05-03 21:13 40.41434 -3.50874 19355 ft 361 kts 195°
2026-05-03 21:14 40.38981 -3.51573 19970 ft 363 kts 195°
2026-05-03 21:14 40.36499 -3.52278 20558 ft 366 kts 195°
2026-05-03 21:14 40.34009 -3.52983 21122 ft 369 kts 195°
2026-05-03 21:14 40.31493 -3.53696 21702 ft 371 kts 195°
2026-05-03 21:15 40.28948 -3.54417 22256 ft 373 kts 195°
2026-05-03 21:15 40.26411 -3.55132 22774 ft 376 kts 195°
2026-05-03 21:15 40.23845 -3.55856 23288 ft 379 kts 195°
2026-05-03 21:15 40.21261 -3.56584 23793 ft 381 kts 196°
2026-05-03 21:16 40.18651 -3.57318 24296 ft 384 kts 196°
2026-05-03 21:16 40.16037 -3.58053 24749 ft 387 kts 196°
2026-05-03 21:16 40.13393 -3.58797 25216 ft 389 kts 196°
2026-05-03 21:16 40.10751 -3.59539 25639 ft 392 kts 196°
2026-05-03 21:17 40.08086 -3.60288 26033 ft 395 kts 196°
2026-05-03 21:17 40.05415 -3.61037 26423 ft 397 kts 196°
2026-05-03 21:17 40.02699 -3.61799 26797 ft 400 kts 196°
2026-05-03 21:17 39.99953 -3.62566 27229 ft 401 kts 196°
2026-05-03 21:18 39.97221 -3.63328 27726 ft 400 kts 196°
2026-05-03 21:18 39.94502 -3.64086 28150 ft 401 kts 197°
2026-05-03 21:18 39.91774 -3.64848 28519 ft 403 kts 197°
2026-05-03 21:18 39.89065 -3.65606 28877 ft 405 kts 197°
2026-05-03 21:19 39.83544 -3.67144 28969 ft 406 kts 197°
2026-05-03 21:19 39.77997 -3.68688 28972 ft 406 kts 197°
2026-05-03 21:20 39.72496 -3.70215 28982 ft 406 kts 197°
2026-05-03 21:20 39.66945 -3.71753 28980 ft 406 kts 197°
2026-05-03 21:21 39.61436 -3.73284 28981 ft 406 kts 198°
2026-05-03 21:21 39.56096 -3.75509 28978 ft 401 kts 207°
2026-05-03 21:22 39.51163 -3.78780 28985 ft 398 kts 213°
2026-05-03 21:22 39.46391 -3.82395 28978 ft 398 kts 214°
2026-05-03 21:23 39.41602 -3.86036 28986 ft 398 kts 214°
2026-05-03 21:23 39.36829 -3.89662 28984 ft 398 kts 214°
2026-05-03 21:24 39.32069 -3.93272 28980 ft 398 kts 214°
2026-05-03 21:24 39.27298 -3.96888 28985 ft 398 kts 214°
2026-05-03 21:25 39.22522 -4.00500 28990 ft 399 kts 214°
2026-05-03 21:25 39.17725 -4.04120 28997 ft 399 kts 214°
2026-05-03 21:26 39.12948 -4.07721 29000 ft 399 kts 214°
2026-05-03 21:26 39.08174 -4.11312 28994 ft 399 kts 214°
2026-05-03 21:27 39.03379 -4.14914 28998 ft 399 kts 214°
2026-05-03 21:27 38.98569 -4.18522 28995 ft 399 kts 214°
2026-05-03 21:28 38.93777 -4.22111 28990 ft 397 kts 214°
2026-05-03 21:28 38.89011 -4.25671 28985 ft 397 kts 214°
2026-05-03 21:29 38.84218 -4.29252 28998 ft 396 kts 214°
2026-05-03 21:29 38.79478 -4.32783 29003 ft 396 kts 214°
2026-05-03 21:30 38.74687 -4.36348 29004 ft 396 kts 215°
2026-05-03 21:30 38.69788 -4.39547 28983 ft 406 kts 201°
2026-05-03 21:31 38.64199 -4.40863 29004 ft 407 kts 196°
2026-05-03 21:31 38.58625 -4.42105 29003 ft 407 kts 197°
2026-05-03 21:32 38.53033 -4.43388 29016 ft 407 kts 197°
2026-05-03 21:32 38.47470 -4.44686 29004 ft 406 kts 197°
2026-05-03 21:33 38.41922 -4.45976 29012 ft 406 kts 197°
2026-05-03 21:33 38.36335 -4.47277 29011 ft 406 kts 197°
2026-05-03 21:34 38.30783 -4.48572 29018 ft 406 kts 197°
2026-05-03 21:34 38.25217 -4.49857 29018 ft 406 kts 197°
2026-05-03 21:35 38.19644 -4.51149 29017 ft 406 kts 198°
2026-05-03 21:35 38.14090 -4.52440 29013 ft 406 kts 198°
2026-05-03 21:36 38.08531 -4.53727 29011 ft 406 kts 197°
2026-05-03 21:36 38.02968 -4.55009 29007 ft 406 kts 198°
2026-05-03 21:37 38.00210 -4.55648 28752 ft 405 kts 197°
2026-05-03 21:37 37.97445 -4.56287 27811 ft 412 kts 197°
2026-05-03 21:37 37.94607 -4.56955 26735 ft 419 kts 197°
2026-05-03 21:37 37.91732 -4.57620 25800 ft 421 kts 197°
2026-05-03 21:38 37.88860 -4.58277 25196 ft 416 kts 196°
2026-05-03 21:38 37.86015 -4.58923 24641 ft 411 kts 196°
2026-05-03 21:38 37.83193 -4.59566 23969 ft 408 kts 196°
2026-05-03 21:38 37.80427 -4.60201 23191 ft 405 kts 195°
2026-05-03 21:39 37.77661 -4.60836 22637 ft 401 kts 195°
2026-05-03 21:39 37.74920 -4.61463 22203 ft 397 kts 195°
2026-05-03 21:39 37.72212 -4.62079 21835 ft 393 kts 195°
2026-05-03 21:39 37.69566 -4.62682 21251 ft 388 kts 195°
2026-05-03 21:40 37.66896 -4.63293 20645 ft 385 kts 195°
2026-05-03 21:40 37.64297 -4.63887 20050 ft 381 kts 195°
2026-05-03 21:40 37.61710 -4.64480 19445 ft 378 kts 195°
2026-05-03 21:40 37.59134 -4.65069 18859 ft 374 kts 195°
2026-05-03 21:41 37.56566 -4.65654 18282 ft 371 kts 195°
2026-05-03 21:41 37.54063 -4.66225 17681 ft 369 kts 195°
2026-05-03 21:41 37.51521 -4.66805 16748 ft 375 kts 194°
2026-05-03 21:41 37.48907 -4.67406 15700 ft 383 kts 194°
2026-05-03 21:42 37.46286 -4.68004 15090 ft 385 kts 194°
2026-05-03 21:42 37.43678 -4.68597 14549 ft 384 kts 194°
2026-05-03 21:42 37.41066 -4.69188 14010 ft 381 kts 194°
2026-05-03 21:42 37.38458 -4.69775 13462 ft 378 kts 194°
2026-05-03 21:43 37.35872 -4.70359 12914 ft 376 kts 194°
2026-05-03 21:43 37.33287 -4.70942 12361 ft 374 kts 194°
2026-05-03 21:43 37.30743 -4.71514 11817 ft 372 kts 194°
2026-05-03 21:43 37.28199 -4.72090 11277 ft 366 kts 193°
2026-05-03 21:44 37.25738 -4.72643 10840 ft 355 kts 193°
2026-05-03 21:44 37.23327 -4.73181 10360 ft 346 kts 193°
2026-05-03 21:44 37.21013 -4.73700 10201 ft 329 kts 194°
2026-05-03 21:44 37.18826 -4.74193 10106 ft 313 kts 193°
2026-05-03 21:45 37.16731 -4.74666 10022 ft 297 kts 193°
2026-05-03 21:45 37.14728 -4.75119 9760 ft 289 kts 193°
2026-05-03 21:45 37.12785 -4.75561 9430 ft 285 kts 193°
2026-05-03 21:45 37.10849 -4.76002 9117 ft 280 kts 193°
2026-05-03 21:46 37.08924 -4.76437 8652 ft 281 kts 193°
2026-05-03 21:46 37.07010 -4.76868 8240 ft 277 kts 192°
2026-05-03 21:46 37.05112 -4.77294 7867 ft 275 kts 192°
2026-05-03 21:46 37.03245 -4.77712 7513 ft 272 kts 192°
2026-05-03 21:47 37.01375 -4.78127 7168 ft 269 kts 192°
2026-05-03 21:47 36.99536 -4.78535 6830 ft 267 kts 192°
2026-05-03 21:47 36.97713 -4.78939 6498 ft 264 kts 192°
2026-05-03 21:47 36.95924 -4.79339 6176 ft 262 kts 192°
2026-05-03 21:48 36.94160 -4.79718 6003 ft 252 kts 187°
2026-05-03 21:48 36.92434 -4.79610 5924 ft 243 kts 169°
2026-05-03 21:48 36.90814 -4.78997 5636 ft 242 kts 163°
2026-05-03 21:48 36.89223 -4.78276 5370 ft 248 kts 162°
2026-05-03 21:49 36.87524 -4.77494 5093 ft 269 kts 160°
2026-05-03 21:49 36.85806 -4.76500 4846 ft 272 kts 154°
2026-05-03 21:49 36.84137 -4.75376 4655 ft 273 kts 153°
2026-05-03 21:49 36.82477 -4.74237 4462 ft 272 kts 153°
2026-05-03 21:50 36.80792 -4.73087 4009 ft 276 kts 153°
2026-05-03 21:50 36.79129 -4.71961 3523 ft 271 kts 154°
2026-05-03 21:50 36.77545 -4.70766 3097 ft 261 kts 139°
2026-05-03 21:50 36.76510 -4.68958 2991 ft 250 kts 116°
2026-05-03 21:51 36.75832 -4.67037 2857 ft 241 kts 114°
2026-05-03 21:51 36.75133 -4.65126 2548 ft 237 kts 117°
2026-05-03 21:51 36.74404 -4.63343 2240 ft 228 kts 119°
2026-05-03 21:51 36.73680 -4.61641 1943 ft 217 kts 119°
2026-05-03 21:52 36.72990 -4.60017 1746 ft 202 kts 119°
2026-05-03 21:52 36.72372 -4.58550 1481 ft 184 kts 118°
2026-05-03 21:52 36.71801 -4.57186 1214 ft 168 kts 118°
2026-05-03 21:52 36.71277 -4.55942 965 ft 155 kts 118°
2026-05-03 21:53 36.70793 -4.54795 757 ft 146 kts 118°
2026-05-03 21:53 36.70324 -4.53682 591 ft 145 kts 118°
2026-05-03 21:53 36.69859 -4.52580 405 ft 143 kts 117°
2026-05-03 21:53 36.69405 -4.51491 212 ft 142 kts 117°
2026-05-03 21:54 36.68950 -4.50406 61 ft 137 kts 117°
2026-05-03 21:54 36.68551 -4.49462 59 ft 105 kts 116°
2026-05-03 21:54 36.68287 -4.48831 59 ft 57 kts 117°
2026-05-03 21:54 36.68102 -4.48551 59 ft 29 kts 142°
2026-05-03 21:55 36.67994 -4.48473 59 ft 12 kts 170°
2026-05-03 21:55 36.67956 -4.48491 59 ft 6 kts 286°
2026-05-03 21:55 36.67982 -4.48554 59 ft 10 kts 296°
2026-05-03 21:55 36.68029 -4.48667 59 ft 19 kts 297°
2026-05-03 21:56 36.68103 -4.48843 59 ft 25 kts 296°
2026-05-03 21:56 36.68183 -4.49035 59 ft 24 kts 297°
2026-05-03 21:56 36.68259 -4.49215 59 ft 20 kts 297°
2026-05-03 21:56 36.68248 -4.49354 59 ft 17 kts 225°
2026-05-03 21:57 36.68156 -4.49457 59 ft 17 kts 222°
2026-05-03 21:57 36.68064 -4.49559 59 ft 17 kts 222°
2026-05-03 21:57 36.67972 -4.49661 59 ft 17 kts 221°
2026-05-03 21:57 36.67884 -4.49759 59 ft 15 kts 221°
2026-05-03 21:58 36.67800 -4.49848 59 ft 15 kts 217°
2026-05-03 21:58 36.67737 -4.49827 59 ft 9 kts 136°
2026-05-03 21:58 36.67679 -4.49748 59 ft 15 kts 130°
2026-05-03 21:58 36.67595 -4.49630 59 ft 18 kts 131°
2026-05-03 21:59 36.67509 -4.49512 59 ft 18 kts 132°
2026-05-03 21:59 36.67451 -4.49435 59 ft 6 kts 136°
2026-05-03 21:59 36.67399 -4.49357 59 ft 21 kts 125°
2026-05-03 21:59 36.67369 -4.49213 59 ft 17 kts 45°
2026-05-03 22:00 36.67386 -4.49099 59 ft 3 kts 110°
2026-05-03 22:00 36.67385 -4.49095 59 ft 0 kts 110°